Lexington Weather

Lexington, Massachusetts, USA

27°F
12/12/2019 4:45pm 
  • Lexington Conditions: Partly cloudy
  • Temperature: 27.0°F / -2.8°CColder 1.8°F than last hour.
  • Dew Point: 19.4°FDecreased 0.9°Fsince last hour.
  • Relative Humidity: 73%Increased 3.0% since last hour.
  • Wind: Wind from WSW WSW Calm, 10-min avg: 1 mph, gust: 2 mph
  • Barometer: 30.66 in Steady
  • Visibility: 10 miles
  • Snow Today: 0.0 in
  •   

Regional Weather Roundup
for Boston / Norton, MA

        
000
ASUS41 KBOX 120500
RWRBOX

REGIONAL WEATHER ROUNDUP
NATIONAL WEATHER SERVICE BOSTON/NORTON MA
1200 AM EST THU DEC 12 2019

NOTE:  "FAIR" INDICATES FEW OR NO CLOUDS BELOW 12,000 FEET WITH NO 
SIGNIFICANT WEATHER AND/OR OBSTRUCTIONS TO VISIBILITY.

MAZALL-120600-
EASTERN MASSACHUSETTS
  
CITY           SKY/WX    TMP DP  RH WIND       PRES   REMARKS
BOSTON         FAIR      32  20  61 W15       30.35R WCI  22          
BEVERLY        FAIR      29  18  63 W12       30.33R WCI  19          
LAWRENCE       FAIR      28  16  60 SW10      30.34R WCI  19          
BEDFORD        FAIR      25  18  74 SW7       30.34R WCI  17          
BLUE HILL        N/A     24  21  88 W16G26    30.30R WCI  11          
NORWOOD        FAIR      23  17  78 NW5       30.36R WCI  17          
MARSHFIELD     NOT AVBL                                               
PLYMOUTH       FAIR      24  22  91 W6        30.36R WCI  17          
TAUNTON        FAIR      28  22  78 SW6       30.37R WCI  22          
NEW BEDFORD    FAIR      29  23  78 W8        30.37R WCI  21          
$$

MAZALL-120600-
CAPE COD AND THE ISLANDS
  
CITY           SKY/WX    TMP DP  RH WIND       PRES   REMARKS
FALMOUTH       CLEAR     28  25  86 NW9G17    30.35R WCI  20          
HYANNIS        NOT AVBL                                               
CHATHAM        FAIR      28  25  88 W5        30.36R WCI  23          
PROVINCETOWN   FAIR      33  24  69 NW24G32   30.36R WCI  20          
NANTUCKET      FAIR      33  24  69 NW10      30.35R WCI  25          
MARTHAS VNYRD  FAIR      33  23  66 NW12      30.37R WCI  24          
$$
 
MAZALL-120600-
CENTRAL AND WESTERN MASSACHUSETTS
  
CITY           SKY/WX    TMP DP  RH WIND       PRES   REMARKS
WORCESTER      FAIR      24  13  62 W26G39    30.31R WCI   8          
FITCHBURG      FAIR      27  14  58 W6        30.37R WCI  20          
ORANGE         MOCLDY    28   9  44 W13       30.38R WCI  17          
SPRINGFIELD    FAIR      27   9  47 W18G31    30.40R WCI  14          
WESTFIELD      FAIR      27  10  49 NW14G22   30.41R WCI  16          
NORTH ADAMS    MOCLDY    24   7  48 W13G23    30.39R WCI  12          
PITTSFIELD     FAIR      22   6  50 W18G28    30.36R WCI   7          
$$
 
RIZALL-120600-
RHODE ISLAND
  
CITY           SKY/WX    TMP DP  RH WIND       PRES   REMARKS
PROVIDENCE     FAIR      28  22  78 W3        30.39R                  
NEWPORT        FAIR      31  22  69 W9G17     30.38R WCI  23          
BLOCK ISLAND   FAIR      31  21  66 NW14G24   30.40R WCI  21          
SMITHFIELD     FAIR      25  23  92 NW7       30.36R WCI  17          
WESTERLY       FAIR      31  19  61 W5        30.40R WCI  26          
$$
 
CTZALL-120600-
CONNECTICUT
  
CITY           SKY/WX    TMP DP  RH WIND       PRES   REMARKS
BRADLEY INTL   FAIR      28  16  60 NW15      30.42R WCI  16          
HARTFORD       FAIR      30  18  60 NW8       30.43R WCI  22          
BRIDGEPORT     FAIR      31  17  56 W7        30.45R WCI  24          
DANBURY        FAIR      24  16  71 W6        30.45R WCI  17          
GROTON         NOT AVBL                                               
NEW HAVEN      FAIR      34  18  52 NW8       30.43R WCI  27          
CHESTER        FAIR      28  16  59 NW9G17    30.40R WCI  20          
MERIDEN        FAIR      29  15  56 NW10G16   30.42R WCI  20          
WILLIMANTIC    FAIR      26  20  77 NW8       30.41R WCI  18          
OXFORD         FAIR      25  17  72 W7        30.41R WCI  17          
$$

MEZ002-015-021-024-NHZ003-005-008-011-012-014-VTZ005-008-120600-
NORTHERN NEW ENGLAND
  
CITY           SKY/WX    TMP DP  RH WIND       PRES   REMARKS
PORTLAND ME    FAIR      28  16  60 SW7       30.27R WCI  21          
BANGOR ME      MOCLDY    21  16  81 VRB5      30.21R WCI  15          
CONCORD NH     FAIR      28  10  46 W15       30.30R WCI  16          
MANCHESTER NH  FAIR      30  12  47 W12       30.31R WCI  20          
NASHUA NH      FAIR      27  15  61 W9        30.35R WCI  18          
PORTSMOUTH NH  NOT AVBL                                               
JAFFREY NH     FAIR      25   9  50 W6        30.31R WCI  18          
KEENE NH       FAIR      27  11  51 W12G17    30.36R WCI  17          
BURLINGTON VT  FAIR      23   5  46 W17G26    30.39R WCI   9          
MT. WASHINGTON SNOWSHWR  -2  -2 100 W66G82      N/A  VSB 0   WCI -37  
$$

NYZ052-076-120600-
EASTERN NEW YORK
  
CITY           SKY/WX    TMP DP  RH WIND       PRES   REMARKS
ALBANY         FAIR      26   8  46 W16       30.47R WCI  14          
NEW YORK CITY  FAIR      33  16  49 NW21G28   30.48R WCI  21          
$$
 
ANZALL-120600-
MARINE OBSERVATIONS
  
STATION/POSITION TIME  TEMP    WIND        PRES    VSBY  WAVE
                       AIR SEA DIR/SP/G                  HT/PER
                 (UTC) (F)     (DEG/KT/KT) (MB)    (MI)  (FT/S)
BOSTON BUOY      0350   35 47  270/ 21/ 25 1025.5          2/10
BUZZARDS BAY     0400   35     300/ 29/ 33 1027.8R
NANTUCKET SOUND  0440      43              1028.0
MASS BAY-STELLWA 0404   35 46  300/ 19/ 23 1024.5R  1 7/8  3/ 4
ISLE OF SHOALS   0400   31     250/ 22/ 25 1024.9R
S OF BLOCK IS    0430      53                N/A           6/ 6
$$

......................KEY.........................
  SKY/WX - SKY CONDITION/PRESENT WEATHER
  TMP    - TEMPERATURE IN FAHRENHEIT
  DWPT   - DEWPOINT IN FAHRENHEIT
  RH     - RELATIVE HUMIDITY IN PERCENT
  WIND   - DIRECTION AND SPEED IN MPH
  PRES   - MEAN SEA LEVEL PRESSURE IN INCHES OF HG
  WCI    - WIND CHILL INDEX
  VSB    - VISIBILITY IN MILES
  HX     - HEAT INDEX
  TC     - TEMPERATURE IN CELSIUS
  VRB    - VARIABLE WIND DIRECTION
  N/A    - NOT AVAILABLE
  
      

Other recent Regional Weather Roundups

Thu Dec 12, 4:10pm

Thu Dec 12, 4:01pm

Thu Dec 12, 3:10pm

Thu Dec 12, 3:00pm

Thu Dec 12, 2:10pm

Thu Dec 12, 2:01pm

Thu Dec 12, 1:10pm

Thu Dec 12, 1:00pm

Thu Dec 12, 12:10pm

Thu Dec 12, 12:00pm

Thu Dec 12, 11:10am

Thu Dec 12, 11:00am

Thu Dec 12, 10:10am

Thu Dec 12, 8:10am

Thu Dec 12, 8:00am

Thu Dec 12, 7:10am

Thu Dec 12, 7:00am

Thu Dec 12, 6:10am

Thu Dec 12, 6:00am

Thu Dec 12, 5:10am

Thu Dec 12, 5:00am

Thu Dec 12, 4:10am

Thu Dec 12, 4:00am

Thu Dec 12, 3:10am

Thu Dec 12, 3:00am

Thu Dec 12, 2:10am

Thu Dec 12, 2:00am

Thu Dec 12, 1:10am

Thu Dec 12, 1:00am

Thu Dec 12, 12:10am

Wed Dec 11, 11:10pm

Wed Dec 11, 11:00pm

Wed Dec 11, 10:10pm

Wed Dec 11, 10:00pm

Wed Dec 11, 9:10pm

Wed Dec 11, 9:00pm

Wed Dec 11, 8:10pm

Wed Dec 11, 8:00pm

Wed Dec 11, 7:10pm

Wed Dec 11, 7:00pm

Wed Dec 11, 6:10pm

Wed Dec 11, 6:00pm

Wed Dec 11, 5:10pm

Wed Dec 11, 5:01pm

Wed Dec 11, 4:10pm

Wed Dec 11, 4:00pm

Wed Dec 11, 3:10pm

Wed Dec 11, 3:01pm

Wed Dec 11, 2:10pm

Wed Dec 11, 2:00pm

Wed Dec 11, 1:10pm

Wed Dec 11, 1:00pm

Wed Dec 11, 12:10pm

Wed Dec 11, 12:00pm

Wed Dec 11, 11:10am

Wed Dec 11, 11:00am

Wed Dec 11, 10:10am

Wed Dec 11, 10:00am

Wed Dec 11, 9:10am

Wed Dec 11, 9:00am

Wed Dec 11, 8:10am

Wed Dec 11, 8:00am

Wed Dec 11, 7:10am

Wed Dec 11, 7:00am

Wed Dec 11, 6:10am

Wed Dec 11, 6:00am

Wed Dec 11, 5:10am

Wed Dec 11, 5:00am

Wed Dec 11, 4:10am

Wed Dec 11, 4:00am

Wed Dec 11, 3:10am

Wed Dec 11, 3:01am

Wed Dec 11, 2:10am

Wed Dec 11, 2:01am

Wed Dec 11, 1:10am

Wed Dec 11, 1:00am

Wed Dec 11, 12:10am

Wed Dec 11, 12:00am

Tue Dec 10, 11:10pm

Tue Dec 10, 11:00pm

Tue Dec 10, 10:10pm

Tue Dec 10, 10:00pm

Tue Dec 10, 9:10pm

Tue Dec 10, 9:01pm

Tue Dec 10, 8:10pm

Tue Dec 10, 8:00pm

Tue Dec 10, 7:10pm

Tue Dec 10, 7:01pm

Tue Dec 10, 6:10pm

Tue Dec 10, 6:01pm

Tue Dec 10, 5:10pm

Tue Dec 10, 5:00pm

Tue Dec 10, 4:10pm

Tue Dec 10, 4:01pm

Tue Dec 10, 3:10pm

Tue Dec 10, 3:01pm

Tue Dec 10, 2:10pm

Tue Dec 10, 2:01pm

Tue Dec 10, 1:10pm

Tue Dec 10, 1:00pm

Tue Dec 10, 12:10pm

Tue Dec 10, 12:00pm

Tue Dec 10, 11:10am

Tue Dec 10, 11:00am

Tue Dec 10, 10:10am

Tue Dec 10, 10:00am

Tue Dec 10, 9:10am

Tue Dec 10, 9:01am

Tue Dec 10, 8:10am

Tue Dec 10, 8:00am

Tue Dec 10, 7:10am

Tue Dec 10, 7:00am

Tue Dec 10, 6:10am

Tue Dec 10, 6:00am

Tue Dec 10, 5:10am

Tue Dec 10, 5:00am

Tue Dec 10, 4:10am

Tue Dec 10, 4:00am

Tue Dec 10, 3:10am

Tue Dec 10, 3:00am

Tue Dec 10, 2:10am

Tue Dec 10, 2:01am

Tue Dec 10, 1:10am

Tue Dec 10, 1:00am

Tue Dec 10, 12:10am

Tue Dec 10, 12:01am

Mon Dec 9, 11:10pm

Mon Dec 9, 11:01pm

Mon Dec 9, 10:10pm

Mon Dec 9, 10:00pm

Mon Dec 9, 9:10pm

Mon Dec 9, 9:01pm

Mon Dec 9, 8:10pm

Mon Dec 9, 8:01pm

Mon Dec 9, 7:10pm

Mon Dec 9, 7:00pm

Mon Dec 9, 6:10pm

Mon Dec 9, 6:00pm

Mon Dec 9, 5:10pm

Mon Dec 9, 5:01pm

Meta data:

ID: 8326f3be-b1cb-4d77-b8cf-37d5e23d2958
Link: https://api.weather.gov/products/8326f3be-b1cb-4d77-b8cf-37d5e23d2958